TimeCDT,TemperatureF,Dew PointF,Humidity,Sea Level PressureIn,VisibilityMPH,Wind Direction,Wind SpeedMPH,Gust SpeedMPH,PrecipitationIn,Events,Conditions,WindDirDegrees,DateUTC
12:15 AM,79.0,70.9,76,29.91,10.0,SE,18.4,24.2,N/A,,Mostly Cloudy,140,2013-10-11 05:15:00
12:35 AM,79.2,71.2,77,29.91,10.0,SE,16.1,24.2,N/A,,Mostly Cloudy,140,2013-10-11 05:35:00
12:55 AM,79.0,70.2,74,29.90,10.0,SSE,18.4,24.2,N/A,,Mostly Cloudy,150,2013-10-11 05:55:00
1:15 AM,79.0,70.3,75,29.90,10.0,SSE,16.1,23.0,N/A,,Mostly Cloudy,150,2013-10-11 06:15:00
1:55 AM,79.0,70.5,75,29.90,10.0,SE,15.0,21.9,N/A,,Overcast,140,2013-10-11 06:55:00
2:15 AM,79.3,71.1,76,29.90,10.0,SSE,11.5,17.3,N/A,,Overcast,150,2013-10-11 07:15:00
2:35 AM,79.2,70.9,76,29.89,10.0,SSE,12.7,19.6,N/A,,Overcast,150,2013-10-11 07:35:00
2:55 AM,79.2,70.7,75,29.89,10.0,SSE,15.0,19.6,N/A,,Overcast,150,2013-10-11 07:55:00
3:15 AM,78.8,71.2,78,29.88,10.0,SSE,11.5,18.4,N/A,,Mostly Cloudy,150,2013-10-11 08:15:00
3:35 AM,78.8,71.6,78,29.88,10.0,SSE,13.8,19.6,N/A,,Mostly Cloudy,150,2013-10-11 08:35:00
3:55 AM,78.8,71.6,78,29.88,10.0,SSE,13.8,-,N/A,,Mostly Cloudy,160,2013-10-11 08:55:00
4:15 AM,78.8,71.4,78,29.87,10.0,SSE,11.5,-,N/A,,Mostly Cloudy,150,2013-10-11 09:15:00
4:35 AM,78.8,71.8,79,29.87,10.0,SE,15.0,19.6,N/A,,Mostly Cloudy,140,2013-10-11 09:35:00
4:55 AM,78.8,72.3,80,29.87,10.0,SSE,13.8,19.6,N/A,,Mostly Cloudy,150,2013-10-11 09:55:00
5:15 AM,79.2,72.5,80,29.86,10.0,SSE,17.3,21.9,N/A,,Mostly Cloudy,150,2013-10-11 10:15:00
5:35 AM,79.0,73.0,82,29.86,10.0,SSE,15.0,20.7,N/A,,Mostly Cloudy,150,2013-10-11 10:35:00
5:55 AM,79.2,72.9,81,29.86,10.0,SSE,12.7,21.9,N/A,,Mostly Cloudy,150,2013-10-11 10:55:00
6:15 AM,79.2,72.9,81,29.87,10.0,SSE,15.0,18.4,N/A,,Mostly Cloudy,150,2013-10-11 11:15:00
6:35 AM,79.3,73.4,82,29.87,10.0,SSE,15.0,19.6,N/A,,Mostly Cloudy,160,2013-10-11 11:35:00
6:55 AM,79.3,73.0,81,29.87,10.0,SSE,13.8,19.6,N/A,,Mostly Cloudy,160,2013-10-11 11:55:00
7:15 AM,79.3,73.4,82,29.88,10.0,SSE,12.7,19.6,N/A,,Mostly Cloudy,160,2013-10-11 12:15:00
7:35 AM,79.3,73.8,83,29.88,10.0,SSE,12.7,19.6,N/A,,Mostly Cloudy,150,2013-10-11 12:35:00
7:55 AM,79.7,73.8,82,29.88,10.0,SSE,13.8,17.3,N/A,,Scattered Clouds,150,2013-10-11 12:55:00
8:15 AM,80.1,73.8,81,29.89,10.0,SSE,11.5,17.3,N/A,,Mostly Cloudy,160,2013-10-11 13:15:00
8:35 AM,80.6,74.1,81,29.90,10.0,SSE,11.5,-,N/A,,Overcast,160,2013-10-11 13:35:00
8:55 AM,81.1,74.3,80,29.91,10.0,SSE,11.5,-,N/A,,Overcast,160,2013-10-11 13:55:00
9:15 AM,81.1,74.5,80,29.91,10.0,SSE,10.4,-,N/A,,Overcast,160,2013-10-11 14:15:00
9:35 AM,81.5,74.8,80,29.92,10.0,SSE,10.4,-,N/A,,Overcast,150,2013-10-11 14:35:00
9:55 AM,81.7,75.2,81,29.92,10.0,SSE,9.2,-,N/A,,Overcast,150,2013-10-11 14:55:00
10:15 AM,82.0,75.6,81,29.92,10.0,SE,10.4,-,N/A,,Overcast,140,2013-10-11 15:15:00
10:35 AM,82.4,75.7,80,29.92,10.0,SE,11.5,-,N/A,,Overcast,140,2013-10-11 15:35:00
10:55 AM,83.1,76.1,79,29.92,10.0,SE,13.8,19.6,N/A,,Overcast,140,2013-10-11 15:55:00
11:15 AM,83.5,76.3,79,29.92,10.0,SE,12.7,18.4,N/A,,Light Drizzle,140,2013-10-11 16:15:00
11:35 AM,84.4,76.6,77,29.91,10.0,SE,11.5,17.3,N/A,,Overcast,140,2013-10-11 16:35:00
11:55 AM,85.5,76.6,75,29.91,10.0,SSE,15.0,-,N/A,,Mostly Cloudy,150,2013-10-11 16:55:00
12:15 PM,85.6,76.8,75,29.91,10.0,SSE,11.5,-,N/A,,Scattered Clouds,160,2013-10-11 17:15:00
12:35 PM,85.6,77.0,75,29.90,10.0,SSE,10.4,-,N/A,,Clear,150,2013-10-11 17:35:00
12:55 PM,84.0,76.5,78,29.90,10.0,SSE,10.4,-,N/A,,Clear,160,2013-10-11 17:55:00
1:15 PM,84.6,76.1,76,29.89,10.0,SSE,11.5,-,N/A,,Scattered Clouds,160,2013-10-11 18:15:00
1:35 PM,85.3,75.9,73,29.88,10.0,SSE,12.7,16.1,N/A,,Clear,150,2013-10-11 18:35:00
1:55 PM,85.3,75.4,72,29.87,10.0,SSE,11.5,-,N/A,,Clear,150,2013-10-11 18:55:00
2:15 PM,84.9,75.6,73,29.87,10.0,SSE,12.7,-,N/A,,Clear,160,2013-10-11 19:15:00
2:35 PM,85.1,75.6,73,29.86,10.0,SSE,13.8,-,N/A,,Clear,150,2013-10-11 19:35:00
2:55 PM,85.3,75.6,73,29.86,10.0,SE,10.4,-,N/A,,Clear,140,2013-10-11 19:55:00
3:15 PM,85.3,75.9,73,29.85,10.0,SE,11.5,-,N/A,,Clear,130,2013-10-11 20:15:00
3:35 PM,84.9,76.3,75,29.85,10.0,SE,12.7,-,N/A,,Clear,140,2013-10-11 20:35:00
3:55 PM,85.3,76.8,76,29.84,10.0,SE,10.4,17.3,N/A,,Clear,130,2013-10-11 20:55:00
4:15 PM,86.0,77.2,75,29.84,10.0,SE,9.2,-,N/A,,Clear,130,2013-10-11 21:15:00
4:35 PM,85.1,76.8,76,29.84,10.0,SE,10.4,-,N/A,,Clear,130,2013-10-11 21:35:00
4:55 PM,84.4,76.8,78,29.84,10.0,SE,11.5,16.1,N/A,,Clear,140,2013-10-11 21:55:00
5:15 PM,84.2,77.0,79,29.83,10.0,SE,11.5,17.3,N/A,,Clear,140,2013-10-11 22:15:00
5:35 PM,83.8,76.1,77,29.83,10.0,SE,13.8,-,N/A,,Clear,140,2013-10-11 22:35:00
5:55 PM,83.3,75.7,78,29.83,10.0,SE,11.5,-,N/A,,Clear,140,2013-10-11 22:55:00
6:15 PM,82.8,76.5,81,29.84,10.0,SE,11.5,16.1,N/A,,Clear,140,2013-10-11 23:15:00
6:35 PM,81.9,76.6,84,29.84,10.0,SE,13.8,18.4,N/A,,Clear,140,2013-10-11 23:35:00
6:55 PM,81.5,77.0,86,29.85,10.0,SE,12.7,17.3,N/A,,Scattered Clouds,140,2013-10-11 23:55:00
7:15 PM,81.5,76.6,85,29.85,10.0,SE,13.8,19.6,N/A,,Scattered Clouds,140,2013-10-12 00:15:00
7:35 PM,81.1,77.0,87,29.85,10.0,SE,12.7,-,N/A,,Scattered Clouds,140,2013-10-12 00:35:00
7:55 PM,81.0,77.0,88,29.86,10.0,SE,11.5,17.3,N/A,,Clear,140,2013-10-12 00:55:00
8:15 PM,81.1,77.2,88,29.86,10.0,SE,12.7,-,N/A,,Scattered Clouds,140,2013-10-12 01:15:00
8:35 PM,80.8,77.0,88,29.87,10.0,SE,11.5,-,N/A,,Scattered Clouds,140,2013-10-12 01:35:00
8:55 PM,81.0,77.2,88,29.87,10.0,SSE,12.7,18.4,N/A,,Scattered Clouds,150,2013-10-12 01:55:00
9:15 PM,80.6,77.4,90,29.87,10.0,SSE,10.4,20.7,N/A,,Scattered Clouds,150,2013-10-12 02:15:00
9:35 PM,80.8,77.4,89,29.87,10.0,SE,12.7,18.4,N/A,,Scattered Clouds,140,2013-10-12 02:35:00
9:55 PM,80.8,77.2,89,29.88,10.0,SSE,11.5,19.6,N/A,,Scattered Clouds,150,2013-10-12 02:55:00
10:15 PM,80.6,77.2,89,29.88,10.0,SSE,13.8,18.4,N/A,,Scattered Clouds,150,2013-10-12 03:15:00
10:35 PM,80.6,77.4,90,29.88,10.0,SSE,13.8,19.6,N/A,,Scattered Clouds,150,2013-10-12 03:35:00
10:55 PM,80.6,77.4,90,29.88,10.0,SSE,12.7,20.7,N/A,,Mostly Cloudy,150,2013-10-12 03:55:00
11:15 PM,80.6,77.0,89,29.89,10.0,SSE,15.0,-,N/A,,Scattered Clouds,160,2013-10-12 04:15:00
11:35 PM,80.6,77.2,89,29.88,10.0,SSE,13.8,18.4,N/A,,Clear,160,2013-10-12 04:35:00
11:55 PM,80.6,77.2,89,29.88,10.0,SSE,12.7,19.6,N/A,,Clear,160,2013-10-12 04:55:00